Chicopee, MA

10:20 PM EST on February 21, 2017 (GMT -0500)
Westover Air Reserve Base / Metropolitan Airport

Weather History for KCEF - April, 2014

Change the Weather History Date:

Sunday, April 6, 2014

  Actual Average Record
Temperature  
Mean Temperature 41 °F -  
Max Temperature 58 °F 51 °F 73 °F (2005)
Min Temperature 24 °F 32 °F 15 °F (2016)
Degree Days  
Heating Degree Days 24    
Moisture  
Dew Point 22 °F    
Average Humidity 54    
Maximum Humidity 98    
Minimum Humidity 22    
Precipitation  
Precipitation 0.00 in - - ()
Sea Level Pressure  
Sea Level Pressure 30.13 in    
Wind  
Wind Speed 8 mph (NW)    
Max Wind Speed 18 mph    
Max Gust Speed 26 mph    
Visibility 10 miles    
Events      
Averages and records for this station are not official NWS values.
T = Trace of Precipitation, MM = Missing Value Source: NWS Daily Summary

Daily Weather History Graph

Daily Weather History Graph

Search for Another Location

Airport or City:

Trip Planner

Search our weather history database for the weather conditions in past years. The results will help you decide how hot, cold, wet, or windy it might be!

Date:

Astronomy

Apr. 06, 2014 Rise Set
Actual Time 6:24 AM EDT 7:21 PM EDT
Civil Twilight 5:55 AM EDT 7:50 PM EDT
Nautical Twilight 5:21 AM EDT 8:24 PM EDT
Astronomical Twilight 4:46 AM EDT 8:59 PM EDT
Moon 11:19 AM EDT (4/6) 1:18 AM EDT (4/6)
Length of Visible Light 13h 54m
Length of Day
12h 57m
Waxing Crescent, 43% of the Moon is Illuminated
Apr 6
Waxing Crescent
Apr 7
First Quarter
Apr 15
Full
Apr 22
Last Quarter
Apr 29
New

Hourly Weather History & Observations

Time (EDT) Temp. Windchill Dew Point Humidity Pressure Visibility Wind Dir Wind Speed Gust Speed Precip Events Conditions
12:58 AM 36.0 °F 25.6 °F 21.7 °F 56% 30.01 in 10.0 mi WNW 18.4 mph 26.5 mph N/A   Clear
1:58 AM 34.3 °F 26.5 °F 22.1 °F 61% 30.03 in 10.0 mi NW 10.4 mph - N/A   Clear
2:58 AM 33.1 °F 24.9 °F 22.6 °F 66% 30.03 in 10.0 mi WNW 10.4 mph - N/A   Clear
3:58 AM 31.3 °F 27.9 °F 23.0 °F 71% 30.04 in 10.0 mi NW 3.5 mph - N/A   Clear
4:58 AM 25.7 °F - 24.1 °F 94% 30.06 in 10.0 mi NNW 1.2 mph - N/A   Clear
5:58 AM 24.4 °F - 23.7 °F 97% 30.09 in 10.0 mi Calm Calm - N/A   Clear
6:58 AM 25.2 °F - 23.5 °F 94% 30.13 in 10.0 mi Calm Calm - N/A   Clear
7:58 AM 34.3 °F - 26.6 °F 73% 30.15 in 10.0 mi WNW 2.3 mph - N/A   Clear
8:58 AM 37.9 °F 34.4 °F 21.4 °F 51% 30.16 in 10.0 mi Variable 4.6 mph - N/A   Clear
9:58 AM 40.5 °F 34.1 °F 19.9 °F 44% 30.16 in 10.0 mi WNW 10.4 mph - N/A   Clear
10:58 AM 43.9 °F 40.5 °F 19.8 °F 38% 30.17 in 10.0 mi WNW 5.8 mph - N/A   Clear
11:58 AM 46.6 °F - 18.9 °F 33% 30.14 in 10.0 mi SW 6.9 mph - N/A   Clear
12:58 PM 49.8 °F - 17.8 °F 28% 30.14 in 10.0 mi Variable 5.8 mph - N/A   Clear
1:58 PM 54.0 °F - 16.7 °F 23% 30.12 in 10.0 mi West 5.8 mph - N/A   Clear
2:58 PM 55.6 °F - 16.5 °F 22% 30.12 in 10.0 mi Calm Calm - N/A   Clear
3:58 PM 57.7 °F - 18.3 °F 22% 30.12 in 10.0 mi WNW 5.8 mph - N/A   Clear
4:58 PM 58.1 °F - 18.7 °F 22% 30.12 in 10.0 mi NW 8.1 mph - N/A   Clear
5:58 PM 57.4 °F - 20.1 °F 24% 30.13 in 10.0 mi West 5.8 mph - N/A   Clear
6:58 PM 54.0 °F - 22.8 °F 30% 30.13 in 10.0 mi NW 8.1 mph - N/A   Clear
7:58 PM 48.9 °F - 23.0 °F 36% 30.16 in 10.0 mi Calm Calm - N/A   Clear
8:58 PM 41.2 °F - 26.1 °F 55% 30.18 in 10.0 mi East 2.3 mph - N/A   Clear
9:58 PM 38.3 °F - 28.6 °F 68% 30.20 in 10.0 mi East 1.2 mph - N/A   Clear
10:58 PM 35.1 °F 30.1 °F 29.7 °F 81% 30.22 in 10.0 mi SSE 5.8 mph - N/A   Clear
11:58 PM 31.1 °F 26.4 °F 30.6 °F 98% 30.20 in 10.0 mi NE 4.6 mph - N/A   Clear